Temp
19 19 20 20 21 22 22 22 22 22 23 23 23 23 24 24 25 25 26 26 26 27 26 26 26 27 27 28 27 28 25 24 30 29 31 33 32 31 31 31 30 29 26 25 24
19 19 20 20 21 22 22 22 22 23 23 23 23 24 24 24 25 27 28 27 27 26 26 26 28 28 27 25 25 23 23 27 33 32 32 33 32 32 31 30 28 26 25 25 25
19 19 20 20 21 22 22 22 22 23 23 24 24 24 24 24 25 27 27 27 27 26 26 27 27 25 21 23 24 24 24 31 32 33 33 33 32 32 31 29 27 26 25 25 25
19 19 20 20 21 22 22 22 22 23 24 24 24 24 24 24 26 28 28 27 27 27 27 27 29 23 19 20 22 24 29 29 32 32 32 33 32 32 31 30 29 27 26 25 25
19 20 20 20 21 22 22 23 23 23 24 24 24 24 24 24 27 28 28 27 27 27 28 28 29 22 21 20 20 21 26 32 32 32 32 31 30 31 30 29 28 27 26 26 26
19 20 20 21 21 22 22 23 23 23 24 24 24 24 24 24 28 28 28 27 27 26 27 29 29 29 28 22 23 26 29 30 32 31 31 30 30 31 30 29 28 28 27 27 26
19 20 20 21 21 22 23 23 23 24 24 24 24 24 24 27 29 28 28 27 27 27 28 29 29 30 29 26 28 29 29 29 30 31 30 30 28 29 29 29 28 28 28 27 27
20 20 20 21 21 22 23 23 23 24 24 24 24 23 25 29 29 28 28 28 28 28 28 29 29 29 28 26 23 28 25 26 30 30 28 28 25 26 29 29 29 28 28 28 28
20 20 20 21 21 22 23 23 24 24 24 24 24 23 25 29 29 28 28 28 28 29 29 29 29 27 27 20 21 24 26 25 27 29 29 27 24 25 28 29 29 29 29 28 28
20 20 20 21 22 23 23 23 24 24 24 24 24 23 27 29 30 29 28 29 28 29 29 28 24 21 23 23 24 25 28 28 27 30 29 26 26 28 29 28 29 29 29 29 28
20 20 21 21 22 23 23 23 24 25 24 25 28 28 30 30 30 29 29 30 28 26 21 21 21 21 24 29 30 31 29 25 30 33 30 28 28 28 29 28 30 29 29 29 29
20 20 21 21 22 23 23 23 26 26 28 29 29 28 29 31 30 30 30 28 23 21 21 22 22 26 29 30 30 31 31 31 34 34 33 28 26 29 29 31 31 29 30 30 29
20 20 21 22 22 23 24 26 27 27 27 29 30 29 31 31 31 31 30 24 20 21 22 21 25 28 29 29 31 32 31 31 32 35 32 30 27 30 31 32 32 31 30 30 30
20 20 21 22 22 23 25 27 27 27 24 29 30 30 31 31 31 32 30 26 19 21 23 23 27 28 30 30 32 31 33 33 35 30 29 30 27 30 31 31 31 33 31 31 30
20 21 21 21 22 23 26 27 27 28 23 32 32 33 33 32 33 32 32 31 23 24 24 27 28 31 32 31 34 33 34 33 33 29 27 26 23 27 31 30 30 31 32 32 32
20 21 21 21 23 25 26 27 27 25 25 32 33 32 32 32 32 32 32 33 32 28 27 29 32 32 32 35 36 36 34 32 28 26 24 26 26 27 28 30 30 32 34 34 33
20 21 21 22 24 24 25 26 24 24 32 32 31 32 31 31 32 32 32 31 29 29 28 29 30 32 34 33 34 35 31 28 26 26 26 27 27 27 29 32 33 31 34 34 34
21 21 22 23 23 24 25 24 24 30 31 31 32 32 31 32 32 33 30 30 29 28 26 24 27 32 35 35 34 33 31 27 29 29 27 29 28 30 32 34 35 35 35 35 35
20 21 22 24 23 23 23 23 27 25 27 29 30 32 31 33 31 32 30 25 27 27 28 25 27 31 36 36 35 33 30 33 31 30 24 29 31 32 33 32 33 35 35 35 33
20 21 23 24 23 23 22 24 28 30 30 31 27 33 32 31 31 31 30 30 28 26 25 27 27 30 35 35 35 35 33 29 26 29 28 28 30 28 30 30 33 35 33 34 33
20 21 26 25 23 23 22 26 30 30 29 31 32 31 31 30 30 31 30 27 26 27 26 26 26 29 31 33 32 31 29 30 28 27 26 28 25 30 31 31 32 31 33 33 33
20 22 26 25 24 25 24 28 30 31 34 33 34 30 28 25 27 29 29 30 26 25 27 28 26 24 29 34 36 35 34 30 25 28 27 26 27 31 34 32 31 31 32 32 32
20 26 26 26 23 25 27 29 30 31 33 34 34 28 28 26 25 24 27 29 32 31 30 29 27 28 29 30 31 34 35 35 31 27 29 26 28 32 30 29 30 30 31 31 31
20 23 26 26 27 27 27 28 30 33 33 34 32 26 26 24 22 20 23 29 30 31 33 33 30 29 28 29 31 32 32 33 32 27 28 28 26 27 26 27 28 30 29 29 29
21 24 27 24 26 26 28 28 30 31 34 34 33 32 30 24 24 22 26 29 29 34 34 32 30 31 32 33 33 33 33 32 31 31 30 28 25 26 26 26 28 29 28 28 28
19 23 25 27 28 27 27 28 29 32 32 33 32 33 32 31 31 30 32 31 31 31 32 31 28 30 33 31 32 32 32 32 32 32 27 27 26 26 29 29 27 27 27 27 27
21 22 23 27 29 27 28 28 30 32 32 33 33 32 32 32 34 34 35 34 33 30 31 32 28 27 29 31 31 29 31 32 31 30 28 25 26 26 25 26 26 27 27 27 27
Height
1517 1516 1515 1515 1514 1514 1514 1513 1514 1514 1514 1514 1513 1512 1510 1508 1506 1504 1503 1505 1505 1506 1506 1503 1500 1502 1502 1500 1503 1505 1510 1509 1494 1492 1489 1485 1487 1491 1493 1497 1498 1499 1503 1513 1521
1516 1515 1515 1515 1514 1513 1513 1513 1513 1513 1513 1513 1512 1511 1509 1506 1503 1500 1502 1503 1505 1505 1505 1500 1499 1498 1498 1500 1503 1503 1511 1501 1480 1480 1483 1482 1486 1491 1494 1497 1503 1507 1512 1517 1522
1516 1515 1514 1514 1513 1512 1512 1513 1513 1513 1513 1512 1511 1510 1508 1506 1502 1499 1500 1501 1504 1504 1503 1501 1501 1501 1502 1496 1496 1500 1503 1484 1482 1481 1482 1482 1485 1488 1492 1499 1502 1507 1513 1519 1523
1515 1514 1514 1513 1512 1512 1512 1512 1512 1512 1512 1512 1510 1509 1507 1506 1506 1499 1499 1501 1502 1501 1500 1500 1503 1505 1517 1519 1511 1509 1490 1490 1484 1483 1482 1482 1488 1490 1491 1498 1502 1507 1512 1519 1523
1514 1513 1513 1512 1512 1511 1511 1511 1511 1512 1511 1511 1509 1508 1508 1506 1499 1499 1498 1500 1500 1499 1498 1501 1502 1506 1519 1521 1514 1509 1495 1486 1484 1483 1483 1486 1490 1492 1494 1498 1502 1508 1514 1519 1522
1513 1512 1512 1511 1511 1511 1510 1510 1510 1511 1510 1510 1509 1508 1507 1506 1497 1497 1497 1499 1499 1500 1499 1501 1503 1503 1504 1509 1505 1499 1493 1490 1486 1487 1488 1487 1491 1492 1500 1499 1504 1509 1515 1518 1520
1511 1511 1510 1510 1510 1510 1509 1509 1509 1510 1510 1509 1509 1507 1505 1499 1497 1496 1495 1497 1500 1502 1500 1503 1502 1501 1500 1498 1496 1488 1492 1489 1489 1486 1490 1489 1497 1498 1500 1501 1504 1509 1514 1516 1519
1510 1509 1509 1509 1509 1508 1508 1508 1509 1509 1509 1509 1508 1507 1500 1496 1496 1496 1497 1498 1500 1500 1500 1498 1500 1499 1501 1493 1502 1493 1495 1508 1485 1488 1491 1492 1510 1494 1499 1501 1503 1507 1511 1514 1517
1508 1508 1508 1508 1507 1507 1507 1507 1508 1508 1508 1508 1508 1506 1498 1494 1494 1495 1496 1498 1498 1499 1498 1496 1496 1499 1504 1510 1515 1503 1512 1508 1497 1487 1489 1493 1505 1492 1496 1498 1502 1504 1509 1512 1515
1506 1506 1506 1507 1506 1506 1506 1507 1507 1507 1507 1507 1506 1509 1494 1491 1492 1493 1495 1499 1498 1497 1496 1493 1494 1499 1505 1515 1530 1523 1510 1502 1498 1482 1488 1495 1496 1491 1492 1496 1500 1501 1506 1510 1512
1504 1504 1505 1505 1505 1505 1506 1506 1509 1508 1505 1498 1494 1491 1490 1490 1492 1494 1496 1499 1498 1499 1510 1506 1503 1512 1502 1496 1497 1493 1491 1503 1482 1469 1483 1488 1491 1489 1488 1493 1496 1498 1502 1505 1509
1502 1503 1503 1504 1503 1504 1504 1504 1502 1504 1496 1492 1489 1490 1488 1489 1492 1493 1497 1500 1504 1510 1511 1513 1511 1490 1492 1487 1489 1483 1482 1482 1469 1464 1467 1485 1504 1487 1482 1483 1487 1492 1497 1500 1504
1500 1501 1502 1502 1502 1503 1503 1501 1503 1501 1497 1484 1482 1484 1484 1488 1490 1491 1496 1503 1514 1515 1510 1518 1492 1487 1487 1479 1479 1474 1479 1481 1482 1467 1472 1482 1502 1488 1480 1478 1482 1485 1489 1495 1498
1498 1500 1501 1501 1504 1502 1500 1502 1503 1504 1506 1482 1476 1480 1481 1484 1486 1485 1491 1499 1514 1514 1514 1509 1486 1486 1483 1483 1473 1484 1464 1469 1469 1487 1509 1483 1527 1493 1483 1481 1481 1481 1486 1488 1492
1497 1498 1499 1500 1500 1500 1501 1501 1503 1504 1538 1467 1471 1470 1474 1480 1478 1479 1484 1491 1505 1499 1505 1491 1482 1483 1474 1473 1464 1472 1457 1467 1472 1491 1501 1510 1529 1504 1482 1489 1483 1478 1481 1484 1485
1495 1496 1497 1497 1498 1501 1501 1501 1503 1515 1523 1468 1465 1469 1473 1475 1476 1478 1480 1484 1487 1493 1489 1480 1474 1471 1468 1459 1458 1455 1461 1474 1483 1496 1526 1510 1517 1508 1495 1484 1479 1477 1475 1477 1481
1493 1494 1495 1496 1498 1499 1499 1501 1513 1520 1466 1470 1470 1468 1471 1475 1474 1476 1477 1484 1491 1499 1500 1485 1475 1465 1463 1467 1456 1459 1474 1513 1528 1528 1526 1488 1511 1499 1475 1470 1470 1471 1472 1473 1474
1491 1492 1492 1493 1497 1500 1500 1502 1520 1482 1475 1464 1465 1465 1475 1469 1470 1468 1480 1487 1483 1490 1504 1516 1509 1467 1454 1460 1466 1467 1474 1506 1521 1520 1518 1486 1511 1489 1466 1465 1467 1468 1471 1472 1472
1490 1491 1490 1493 1498 1501 1503 1511 1496 1490 1480 1476 1471 1470 1471 1463 1469 1472 1477 1491 1482 1486 1506 1510 1498 1462 1454 1455 1458 1467 1483 1459 1484 1485 1524 1501 1485 1472 1466 1469 1471 1468 1469 1470 1475
1489 1490 1488 1492 1497 1501 1504 1502 1483 1475 1472 1474 1486 1457 1471 1468 1469 1469 1479 1476 1484 1487 1490 1492 1503 1469 1458 1454 1453 1456 1453 1488 1489 1513 1529 1512 1501 1504 1479 1477 1468 1467 1469 1470 1472
1490 1491 1485 1490 1497 1501 1504 1490 1478 1478 1467 1467 1463 1465 1468 1477 1471 1467 1475 1490 1486 1477 1489 1487 1495 1478 1463 1465 1470 1471 1478 1471 1477 1492 1525 1529 1520 1468 1473 1469 1467 1468 1470 1471 1472
1490 1489 1485 1490 1496 1493 1493 1484 1476 1469 1461 1458 1457 1461 1472 1480 1482 1480 1479 1471 1476 1481 1488 1482 1485 1509 1481 1453 1449 1455 1464 1472 1507 1506 1497 1507 1511 1466 1463 1467 1471 1472 1473 1474 1474
1490 1485 1487 1489 1494 1489 1484 1480 1475 1467 1460 1457 1455 1462 1462 1471 1492 1495 1486 1469 1460 1469 1471 1471 1485 1505 1499 1475 1460 1464 1458 1457 1468 1480 1497 1518 1506 1470 1474 1469 1478 1476 1476 1476 1476
1490 1485 1487 1488 1483 1482 1481 1478 1473 1461 1460 1459 1458 1467 1470 1479 1481 1511 1506 1467 1458 1463 1461 1457 1470 1484 1506 1489 1471 1474 1466 1460 1467 1499 1495 1494 1500 1486 1483 1480 1478 1478 1477 1478 1477
1490 1480 1477 1484 1481 1482 1480 1475 1473 1466 1456 1457 1457 1456 1463 1487 1488 1495 1483 1468 1463 1458 1458 1458 1478 1469 1466 1464 1463 1464 1467 1466 1473 1470 1485 1487 1497 1492 1485 1483 1482 1480 1480 1478 1477
1490 1488 1479 1475 1474 1477 1476 1474 1471 1462 1457 1457 1460 1455 1452 1458 1459 1468 1460 1462 1461 1459 1458 1454 1480 1469 1471 1466 1465 1471 1464 1463 1462 1466 1479 1483 1494 1482 1482 1482 1483 1482 1481 1480 1479
1491 1486 1483 1470 1469 1475 1473 1470 1465 1459 1460 1457 1457 1456 1456 1455 1448 1446 1448 1450 1450 1456 1458 1457 1471 1482 1490 1471 1472 1489 1471 1463 1465 1465 1475 1496 1488 1481 1484 1484 1485 1484 1481 1481 1481
Wind_Speed
6 6 5 5 3 3 5 5 5 4 3 4 5 8 10 13 13 15 13 6 5 12 7 5 5 5 5 11 7 7 4 5 3 9 5 13 11 15 13 17 14 9 31 36 32
6 6 5 4 3 4 6 5 5 4 4 5 6 9 12 15 18 15 6 7 10 6 3 1 9 5 3 4 2 4 3 6 6 6 9 11 16 13 11 22 28 30 33 31 33
7 6 5 5 4 5 6 5 5 5 5 5 8 10 12 16 17 4 3 4 3 2 2 5 7 11 18 11 4 3 3 5 9 8 12 16 16 14 13 12 29 33 32 31 30
7 6 5 5 5 6 6 6 5 5 5 6 8 9 14 16 3 3 4 3 2 4 1 9 8 8 5 6 21 9 13 16 4 4 4 9 16 12 25 20 25 30 29 29 26
7 6 5 5 6 6 6 6 6 5 6 7 8 10 12 9 13 7 2 3 7 2 1 8 8 22 7 16 10 8 17 9 14 4 4 20 14 3 23 27 27 27 25 25 22
7 7 6 5 6 6 6 7 6 6 6 8 8 11 11 7 3 10 2 4 3 7 12 5 2 6 3 18 19 9 13 6 4 12 11 9 7 5 20 25 24 23 21 22 23
7 7 7 6 6 6 7 7 6 7 7 8 9 11 14 17 4 8 1 3 2 8 11 6 11 10 13 5 16 4 3 6 5 6 4 7 4 3 6 22 22 21 20 19 20
7 7 7 6 6 7 8 7 7 7 8 9 9 11 11 4 3 8 4 10 7 9 10 13 9 10 15 16 13 6 4 2 5 3 2 6 6 7 5 11 23 21 22 18 20
7 7 7 6 7 7 8 7 7 8 9 10 8 6 11 6 12 8 8 8 10 7 5 9 4 4 8 5 4 5 2 5 5 6 8 3 6 10 12 9 17 20 21 19 18
7 8 8 7 7 7 8 6 6 9 10 12 12 9 12 11 8 8 7 5 12 14 14 14 7 4 2 4 2 3 4 8 7 12 12 7 5 6 18 13 20 23 20 20 20
8 8 8 7 7 8 8 7 4 6 15 14 10 11 5 6 4 4 3 3 7 14 7 7 5 5 10 4 13 7 11 18 15 13 13 15 9 10 17 17 21 27 24 23 22
8 9 9 8 8 10 12 9 4 15 10 20 27 28 25 5 4 6 8 5 9 6 14 4 7 11 11 13 15 15 5 5 5 9 3 17 6 15 15 15 26 29 28 26 24
8 9 8 8 9 12 14 19 7 12 6 17 23 23 18 7 9 10 16 22 20 11 19 10 11 17 14 16 4 4 3 1 6 5 14 10 13 9 10 16 25 32 32 30 28
9 9 8 8 6 6 14 10 11 8 4 6 12 17 20 11 6 13 24 23 11 17 14 11 9 5 11 15 8 3 6 4 10 7 3 3 3 4 5 5 7 11 31 33 30
9 10 10 12 3 10 4 6 8 6 4 11 17 9 17 17 3 11 24 23 17 18 7 8 4 1 9 7 10 6 6 12 10 3 5 4 5 8 6 6 8 12 27 30 32
10 11 12 13 11 2 1 3 5 2 6 8 11 10 8 13 17 17 17 18 6 9 9 10 14 5 6 6 5 8 7 10 5 4 2 10 6 4 4 7 7 13 20 22 27
11 13 14 15 9 2 2 10 1 4 10 6 11 11 11 8 13 13 11 7 5 1 5 7 7 7 15 10 9 2 5 2 2 3 5 11 2 8 8 7 6 14 24 25 27
11 13 17 21 9 2 5 2 4 8 4 8 6 12 12 11 13 9 5 5 5 6 2 3 6 4 6 4 1 6 5 4 3 1 2 12 5 4 6 9 7 3 10 17 18
9 12 17 18 12 3 4 3 3 4 3 9 20 11 12 13 4 9 7 7 5 8 3 0 5 7 3 5 1 7 3 6 3 8 5 4 2 5 6 5 7 3 12 7 24
8 6 17 15 17 7 0 5 5 6 6 7 15 9 10 7 6 10 10 4 6 3 10 5 7 8 4 6 9 4 5 7 5 2 4 2 5 6 5 7 6 2 13 18 18
10 4 6 18 14 7 3 6 5 6 32 10 10 7 9 9 8 2 11 6 3 8 8 5 6 9 3 1 5 5 6 5 2 5 5 5 6 6 6 7 6 10 15 16 15
4 3 17 24 9 6 5 5 9 24 16 6 5 1 6 6 10 9 6 11 24 28 14 11 3 2 6 4 5 3 4 4 5 8 1 4 3 6 1 7 19 23 22 20 17
4 4 18 22 4 7 6 15 24 21 15 6 4 9 3 4 6 11 13 9 23 4 4 7 3 3 12 8 8 2 3 4 2 2 2 4 2 13 11 19 20 23 23 17 20
4 2 8 19 21 11 5 11 18 18 8 11 8 14 6 4 7 7 10 6 20 6 11 2 3 4 3 7 2 5 7 5 2 3 3 1 6 8 10 10 17 27 27 26 27
4 4 11 5 11 11 14 11 16 15 12 8 4 7 9 8 4 10 14 11 15 10 3 2 2 5 4 6 5 4 7 8 5 5 3 4 12 6 7 8 17 22 21 24 26
5 8 10 13 19 12 12 12 16 16 4 3 6 11 11 4 5 9 7 2 5 7 5 5 3 5 2 9 9 7 8 10 8 6 9 15 9 7 17 18 20 21 22 22 23
8 12 8 14 12 7 7 11 13 4 10 13 10 6 10 10 7 8 13 20 12 10 5 1 4 3 3 6 7 6 6 3 7 8 13 9 6 8 8 12 15 18 20 19 18
Wind_Direction
337 343 340 330 314 265 251 247 246 247 254 281 296 302 305 304 302 292 279 286 284 311 315 24 291 284 284 252 152 138 281 311 303 105 136 124 105 100 131 86 62 135 149 150 152
330 336 337 330 300 257 251 245 247 245 252 277 293 300 311 311 311 291 262 262 279 294 143 356 332 323 56 65 18 108 161 235 82 137 149 159 129 130 130 108 96 108 133 145 155
320 328 332 321 289 257 251 245 246 244 250 275 289 305 310 318 321 234 326 263 227 216 173 283 287 48 17 338 74 21 229 281 53 59 12 138 118 115 128 124 129 133 140 151 157
314 320 320 309 287 263 255 244 240 240 249 272 288 307 313 316 349 339 334 184 170 108 261 296 257 71 91 307 326 317 267 259 68 91 36 99 126 113 97 124 139 142 144 157 162
310 310 308 303 286 267 256 243 235 234 246 269 290 307 322 312 281 299 310 130 146 158 11 320 355 132 157 156 255 280 275 312 143 104 47 79 45 349 107 114 128 139 146 160 170
305 301 298 294 283 270 252 240 230 230 246 268 288 304 320 270 258 316 227 154 157 281 281 308 302 320 183 175 192 215 257 8 169 87 68 88 53 69 99 119 124 138 156 170 174
297 293 288 284 279 268 249 238 228 231 247 267 288 303 300 264 300 311 222 260 19 307 315 315 342 326 301 226 278 130 74 325 65 147 108 91 28 319 52 127 137 147 163 181 170
286 284 279 275 274 263 246 235 230 235 248 265 283 303 278 290 238 249 250 264 269 298 316 303 327 317 14 349 356 350 61 18 253 168 145 102 255 269 173 158 151 158 172 177 176
275 274 270 268 268 255 241 232 230 238 251 264 287 303 271 250 248 232 214 254 258 283 287 327 356 17 91 125 355 303 52 248 307 191 165 132 259 252 225 194 162 162 167 177 183
267 267 261 261 261 245 235 225 233 242 253 268 256 289 251 233 214 214 218 250 6 357 347 27 42 15 197 168 26 352 263 257 243 191 179 141 230 251 212 210 176 161 170 185 188
262 259 253 254 249 236 222 217 258 257 233 219 225 221 222 153 194 210 199 202 32 38 23 348 10 235 264 222 228 231 211 233 236 169 157 189 183 205 213 204 183 166 174 184 190
255 250 246 244 239 234 225 216 253 341 288 269 255 254 272 183 191 215 182 101 42 347 339 282 252 250 248 291 261 253 307 351 98 168 153 175 118 209 205 178 173 168 177 185 189
247 243 239 238 242 240 238 213 344 4 299 288 244 240 249 189 230 241 173 94 54 296 281 267 254 313 303 289 299 241 228 282 206 59 64 99 179 168 200 182 183 175 183 185 189
240 233 223 223 243 238 246 232 291 336 300 259 185 228 236 176 230 224 180 120 169 242 246 239 268 258 272 252 270 48 239 350 148 71 145 73 138 279 201 119 156 195 185 188 193
233 224 214 211 222 219 307 250 320 262 288 160 183 224 183 186 158 211 190 186 161 214 179 254 282 347 168 244 243 230 248 124 105 92 82 28 89 259 148 190 197 217 180 194 195
226 216 209 218 227 142 20 9 287 263 241 185 147 172 151 199 247 184 202 212 258 192 241 270 292 248 254 289 219 268 279 81 57 127 80 188 157 264 217 196 205 191 196 200 195
221 216 213 215 179 194 267 282 222 234 325 139 158 161 197 181 241 186 181 214 210 185 337 323 283 291 278 281 276 151 320 126 255 336 227 153 137 231 205 195 208 188 205 191 202
219 216 216 204 202 128 148 284 252 298 310 314 224 181 204 204 221 208 133 184 28 63 97 19 327 193 214 220 299 286 189 177 246 277 271 135 157 249 187 197 229 229 271 221 220
217 224 230 198 192 163 358 228 235 196 9 302 314 198 206 215 144 250 164 151 180 170 201 47 270 276 37 337 162 289 352 249 271 119 70 224 339 20 172 192 236 215 27 30 69
205 237 240 191 194 181 244 260 244 346 258 144 272 180 222 166 152 234 127 153 115 281 82 274 292 305 316 224 265 225 261 351 347 46 83 34 168 203 187 212 151 150 68 61 48
192 228 208 169 171 198 218 250 312 333 259 225 352 332 45 358 299 149 93 117 77 324 169 222 214 300 4 310 99 354 346 1 102 93 120 178 276 228 157 167 112 87 82 64 43
193 251 163 153 172 214 228 256 265 283 279 244 269 81 91 73 36 326 20 159 152 192 251 204 149 241 256 79 50 271 53 62 96 318 310 112 274 78 212 53 70 69 61 50 38
252 151 167 175 201 235 243 266 265 275 275 326 289 62 356 109 108 13 339 303 291 187 168 204 199 117 313 352 329 330 127 130 11 71 334 113 253 47 35 66 54 46 32 38 47
309 185 171 208 240 265 268 266 278 275 276 298 310 101 93 54 126 64 267 264 260 261 244 113 274 113 164 211 206 323 356 5 134 111 275 131 103 35 46 52 36 34 52 41 32
258 281 185 187 232 246 264 280 294 282 241 253 262 262 215 162 126 189 243 257 249 197 248 174 217 293 11 346 330 339 347 349 3 305 146 73 92 84 68 53 30 33 47 35 21
302 341 331 290 200 217 245 263 280 290 296 199 203 270 280 342 195 193 159 289 167 218 218 216 268 18 357 4 20 358 328 303 267 45 92 91 84 92 62 47 55 48 40 25 10
319 334 303 281 181 200 240 265 284 312 297 302 312 11 50 345 332 352 319 303 198 171 222 75 117 84 308 308 333 330 336 33 74 53 112 93 126 79 53 44 62 46 33 15 2